Weather History for KFMN - July, 2013

Change the Weather History Date:

Friday, July 26, 2013

  Actual Average (KDRO) Record (KDRO)
Temperature  
Mean Temperature 82 °F 70 °F  
Max Temperature 95 °F 86 °F - ()
Min Temperature 68 °F 54 °F - ()
Degree Days  
Heating Degree Days 0 0  
Month to date heating degree days 8  
Since 1 June heating degree days 123  
Since 1 July heating degree days 8  
Cooling Degree Days 16 5  
Month to date cooling degree days 100  
Year to date cooling degree days 129  
Since 1 June cooling degree days 128  
Growing Degree Days 32 (Base 50)    
Moisture  
Dew Point 49 °F    
Average Humidity 35    
Maximum Humidity 55    
Minimum Humidity 7    
Precipitation  
Precipitation 0.00 in 0.07 in - ()
Month to date precipitation 1.33  
Year to date precipitation 7.40  
Sea Level Pressure  
Sea Level Pressure 30.01 in    
Wind  
Wind Speed 9 mph (ESE)    
Max Wind Speed 25 mph    
Max Gust Speed 41 mph    
Visibility 10 miles    
Events      
T = Trace of Precipitation, MM = Missing Value Source: NWS Daily Summary

Daily Weather History Graph

Daily Weather History Graph

Search for Another Location

Airport or City:

Trip Planner

Search our weather history database for the weather conditions in past years. The results will help you decide how hot, cold, wet, or windy it might be!

Date:

Astronomy

Jul. 26, 2013 Rise Set
Actual Time 6:14 AM MDT 8:24 PM MDT
Civil Twilight 5:45 AM MDT 8:53 PM MDT
Nautical Twilight 5:09 AM MDT 9:28 PM MDT
Astronomical Twilight 4:30 AM MDT 10:07 PM MDT
Moon 10:49 PM MDT (7/26) 10:44 AM MDT (7/26)
Length of Visible Light 15h 08m
Length of Day
14h 10m
Waning Gibbous, 79% of the Moon is Illuminated
Jul 26
Waning Gibbous
Jul 29
Last Quarter
Aug 6
New
Aug 14
First Quarter
Aug 20
Full

Hourly Weather History & Observations

Time (MDT) Temp. Heat Index Dew Point Humidity Pressure Visibility Wind Dir Wind Speed Gust Speed Precip Events Conditions
12:53 AM 77.0 °F - 45.0 °F 32% 29.96 in 10.0 mi NNW 4.6 mph - N/A   Clear
1:53 AM 75.9 °F - 46.0 °F 35% 29.97 in 10.0 mi NE 8.1 mph - N/A   Clear
2:53 AM 73.0 °F - 51.1 °F 46% 29.98 in 10.0 mi East 8.1 mph - N/A   Clear
3:53 AM 73.0 °F - 54.0 °F 51% 29.99 in 10.0 mi ESE 15.0 mph - N/A   Clear
4:53 AM 72.0 °F - 55.0 °F 55% 30.02 in 10.0 mi East 8.1 mph - N/A   Clear
5:53 AM 70.0 °F - 53.1 °F 55% 30.04 in 10.0 mi East 9.2 mph - N/A   Clear
6:53 AM 69.1 °F - 51.1 °F 53% 30.06 in 10.0 mi ENE 11.5 mph - N/A   Clear
7:53 AM 72.0 °F - 51.1 °F 48% 30.07 in 10.0 mi ENE 12.7 mph - N/A   Clear
8:53 AM 75.0 °F - 52.0 °F 44% 30.08 in 10.0 mi East 11.5 mph - N/A   Clear
9:53 AM 79.0 °F - 55.0 °F 44% 30.08 in 10.0 mi SE 10.4 mph 18.4 mph N/A   Clear
10:53 AM 81.0 °F 80.7 °F 55.0 °F 41% 30.07 in 10.0 mi Variable 6.9 mph - N/A   Clear
11:53 AM 84.9 °F 83.3 °F 54.0 °F 34% 30.05 in 10.0 mi Variable 6.9 mph - N/A   Clear
12:53 PM 87.1 °F 85.1 °F 54.0 °F 32% 30.01 in 10.0 mi Calm Calm - N/A   Clear
1:53 PM 93.0 °F 90.6 °F 53.1 °F 26% 29.96 in 10.0 mi Variable 3.5 mph - N/A   Clear
2:53 PM 93.9 °F - 44.1 °F 18% 29.94 in 10.0 mi WSW 8.1 mph 17.3 mph N/A   Clear
3:53 PM 90.0 °F - 37.0 °F 15% 29.94 in 10.0 mi NW 10.4 mph - 0.00 in   Overcast
4:53 PM 91.9 °F - 39.0 °F 16% 29.92 in 10.0 mi WSW 5.8 mph - N/A   Partly Cloudy
5:53 PM 93.9 °F - 37.0 °F 14% 29.90 in 10.0 mi SSW 5.8 mph - N/A   Clear
6:53 PM 88.0 °F - 45.0 °F 22% 29.94 in 10.0 mi SSE 18.4 mph 29.9 mph N/A   Scattered Clouds
7:53 PM 79.0 °F - 48.9 °F 35% 29.96 in 8.0 mi South 25.3 mph 41.4 mph N/A   Clear
8:53 PM 75.9 °F - 50.0 °F 40% 29.98 in 10.0 mi South 23.0 mph 33.4 mph N/A   Clear
9:53 PM 73.0 °F - 51.1 °F 46% 30.05 in 10.0 mi ENE 12.7 mph - N/A   Clear
10:53 PM 72.0 °F - 52.0 °F 49% 30.11 in 10.0 mi East 13.8 mph - N/A   Clear
11:53 PM 71.1 °F - 51.1 °F 49% 30.10 in 10.0 mi ESE 13.8 mph - N/A   Clear